| time (UTC) | temp F | wind direction | speed MPH | gust MPH | rain 1hr in | rain 24hr in | rain mn in | humidity % | barometer mb |
| 20260504050004 | 64 | 157 | 4.0 | 7.0 | 0.00 | 0.00 | 0.00 | 61 | 1014.3 |
| 20260504044504 | 65 | 165 | 3.0 | 9.0 | 0.00 | 0.00 | 0.00 | 60 | 1014.1 |
| 20260504043004 | 65 | 201 | 4.0 | 8.0 | 0.00 | 0.00 | 0.00 | 59 | 1014.3 |
| 20260504041503 | 65 | 162 | 4.0 | 8.0 | 0.00 | 0.00 | 0.00 | 57 | 1014.3 |
| 20260504040003 | 66 | 198 | 3.0 | 7.0 | 0.00 | 0.00 | 0.00 | 56 | 1014.4 |
| 20260504034502 | 67 | 225 | 4.0 | 10.0 | 0.00 | 0.00 | 0.00 | 55 | 1014.4 |
| 20260504033005 | 67 | 188 | 4.0 | 9.0 | 0.00 | 0.00 | 0.00 | 53 | 1014.4 |
| 20260504031504 | 68 | 167 | 4.0 | 10.0 | 0.00 | 0.00 | 0.00 | 52 | 1014.2 |
| 20260504030001 | 67 | 207 | 2.0 | 6.0 | 0.00 | 0.00 | 0.00 | 50 | 1014.3 |
| 20260504024500 | 68 | 167 | 2.0 | 6.0 | 0.00 | 0.00 | 0.00 | 49 | 1014.2 |
| 20260504023100 | 68 | 196 | 1.0 | 3.0 | 0.00 | 0.00 | 0.00 | 49 | 1014.1 |
| 20260504021600 | 69 | 135 | 1.0 | 4.0 | 0.00 | 0.00 | 0.00 | 48 | 1014.0 |
| 20260504020059 | 69 | 201 | 2.0 | 3.0 | 0.00 | 0.00 | 0.00 | 47 | 1014.1 |
| 20260504014600 | 69 | 207 | 2.0 | 5.0 | 0.00 | 0.00 | 0.00 | 47 | 1013.9 |
| 20260504013109 | 70 | 146 | 2.0 | 6.0 | 0.00 | 0.00 | 0.00 | 46 | 1013.5 |
| 20260504011558 | 71 | 171 | 2.0 | 4.0 | 0.00 | 0.00 | 0.00 | 45 | 1013.6 |
| 20260504010059 | 71 | 148 | 1.0 | 7.0 | 0.00 | 0.00 | 0.00 | 44 | 1013.5 |
| 20260504004618 | 72 | 161 | 3.0 | 7.0 | 0.00 | 0.00 | 0.00 | 44 | 1013.5 |
| 20260504003100 | 73 | 196 | 2.0 | 9.0 | 0.00 | 0.00 | 0.00 | 43 | 1013.7 |
| 20260504001559 | 74 | 200 | 3.0 | 11.0 | 0.00 | 0.00 | 0.00 | 43 | 1013.9 |
| 20260504000055 | 74 | 207 | 4.0 | 11.0 | 0.00 | 0.00 | 0.00 | 42 | 1014.1 |
| 20260503234553 | 75 | 129 | 5.0 | 10.0 | 0.00 | 0.00 | 0.00 | 42 | 1014.3 |
| 20260503233054 | 75 | 175 | 3.0 | 9.0 | 0.00 | 0.00 | 0.00 | 42 | 1014.1 |
| 20260503231555 | 75 | 146 | 5.0 | 11.0 | 0.00 | 0.00 | 0.00 | 42 | 1014.3 |
| 20260503230056 | 75 | 161 | 5.0 | 9.0 | 0.00 | 0.00 | 0.00 | 42 | 1014.2 |
| 20260503224550 | 75 | 157 | 2.0 | 9.0 | 0.00 | 0.00 | 0.00 | 42 | 1014.2 |
| 20260503223049 | 76 | 173 | 5.0 | 11.0 | 0.00 | 0.00 | 0.00 | 41 | 1014.4 |
| 20260503221552 | 77 | 147 | 4.0 | 9.0 | 0.00 | 0.00 | 0.00 | 41 | 1014.7 |
| 20260503220045 | 76 | 175 | 3.0 | 13.0 | 0.00 | 0.00 | 0.00 | 41 | 1014.8 |
| 20260503214543 | 77 | 153 | 5.0 | 11.0 | 0.00 | 0.00 | 0.00 | 41 | 1015.0 |
| 20260503213043 | 77 | 126 | 4.0 | 10.0 | 0.00 | 0.00 | 0.00 | 42 | 1015.2 |
| 20260503211541 | 77 | 119 | 6.0 | 12.0 | 0.00 | 0.00 | 0.00 | 42 | 1015.5 |
| 20260503210036 | 77 | 141 | 5.0 | 12.0 | 0.00 | 0.00 | 0.00 | 42 | 1015.9 |
| 20260503204535 | 76 | 173 | 5.0 | 12.0 | 0.00 | 0.00 | 0.00 | 43 | 1016.2 |
| 20260503203031 | 76 | 138 | 4.0 | 11.0 | 0.00 | 0.00 | 0.00 | 43 | 1016.5 |
| 20260503201530 | 76 | 132 | 7.0 | 12.0 | 0.00 | 0.00 | 0.00 | 43 | 1016.9 |
| 20260503200029 | 76 | 196 | 5.0 | 10.0 | 0.00 | 0.00 | 0.00 | 44 | 1016.9 |
| 20260503194526 | 76 | 180 | 6.0 | 14.0 | 0.00 | 0.00 | 0.00 | 44 | 1017.2 |
| 20260503193035 | 76 | 228 | 5.0 | 12.0 | 0.00 | 0.00 | 0.00 | 46 | 1017.3 |
| 20260503191523 | 76 | 184 | 7.0 | 10.0 | 0.00 | 0.00 | 0.00 | 46 | 1017.6 |
| 20260503190030 | 76 | 135 | 4.0 | 15.0 | 0.00 | 0.00 | 0.00 | 46 | 1017.8 |
| 20260503184519 | 75 | 181 | 3.0 | 12.0 | 0.00 | 0.00 | 0.00 | 48 | 1018.0 |
| 20260503183016 | 75 | 196 | 6.0 | 10.0 | 0.00 | 0.00 | 0.00 | 48 | 1018.3 |
| 20260503181514 | 75 | 232 | 4.0 | 13.0 | 0.00 | 0.00 | 0.00 | 50 | 1018.6 |
| 20260503180013 | 74 | 238 | 4.0 | 11.0 | 0.00 | 0.00 | 0.00 | 51 | 1018.8 |
| 20260503174511 | 74 | 170 | 6.0 | 12.0 | 0.00 | 0.00 | 0.00 | 51 | 1019.0 |
| 20260503173017 | 74 | 157 | 6.0 | 16.0 | 0.00 | 0.00 | 0.00 | 52 | 1019.2 |
| 20260503171508 | 73 | 196 | 4.0 | 10.0 | 0.00 | 0.00 | 0.00 | 54 | 1019.5 |
| 20260503100128 | 48 | 340 | 0.0 | 0.0 | 0.00 | 0.00 | 0.00 | 70 | 1018.2 |
| 20260503081553 | 49 | 340 | 0.0 | 0.0 | 0.00 | 0.00 | 0.00 | 69 | 1018.2 |
| 20260503071546 | 51 | 340 | 0.0 | 0.0 | 0.00 | 0.00 | 0.00 | 68 | 1018.6 |